• In Hungary
  • List of Countries
  • For 7 days
  • Water Temperature
  • Satellite Maps
  • Weather Map
  • News
  • Weather Widgets
  • user-avatar
    Login

    Hourly Weather Rodgau

    Today, 21 August, Tuesday

    Time Temperature Precipitation Wind Pressure Humidity
    00:00 +21°C° 0 mm 1 mps 751 mmHg 80%
    01:00 +21°C° 0 mm 1 mps 752 mmHg 81%
    02:00 +21°C° 0 mm 1 mps 751 mmHg 82%
    03:00 +20°C° 0 mm 1 mps 751 mmHg 83%
    04:00 +20°C° 0 mm 1 mps 751 mmHg 84%
    05:00 +20°C° 0 mm 1 mps 752 mmHg 83%
    06:00 +21°C° 0 mm 1 mps 752 mmHg 81%
    07:00 +21°C° 0 mm 1 mps 752 mmHg 79%
    08:00 +23°C° 0 mm 1 mps 752 mmHg 73%
    09:00 +24°C° 0 mm 1 mps 752 mmHg 66%
    10:00 +26°C° 0 mm 1 mps 752 mmHg 60%
    11:00 +27°C° 0 mm 1 mps 752 mmHg 55%
    12:00 +28°C° 0 mm 1 mps 752 mmHg 51%
    13:00 +29°C° 0 mm 1 mps 751 mmHg 47%
    14:00 +29°C° 0 mm 1 mps 751 mmHg 46%
    15:00 +29°C° 0 mm 1 mps 751 mmHg 45%
    16:00 +29°C° 0 mm 1 mps 750 mmHg 45%
    17:00 +28°C° 0 mm 1 mps 750 mmHg 49%
    18:00 +27°C° 0 mm 1 mps 750 mmHg 54%
    19:00 +26°C° 0 mm 1 mps 750 mmHg 58%
    20:00 +25°C° 0 mm 1 mps 750 mmHg 62%
    21:00 +24°C° 0 mm 1 mps 751 mmHg 65%
    22:00 +23°C° 0 mm 1 mps 751 mmHg 68%
    23:00 +22°C° 0 mm 1 mps 751 mmHg 70%

    Tomorrow, 22 August, Wednesday

    Time Temperature Precipitation Wind Pressure Humidity
    00:00 +22°C° 0 mm 1 mps 751 mmHg 73%
    01:00 +21°C° 0 mm 1 mps 750 mmHg 75%
    02:00 +21°C° 0 mm 1 mps 750 mmHg 77%
    03:00 +21°C° 0 mm 1 mps 750 mmHg 78%
    04:00 +20°C° 0 mm 1 mps 750 mmHg 80%
    05:00 +21°C° 0 mm 1 mps 750 mmHg 79%
    06:00 +21°C° 0 mm 1 mps 750 mmHg 77%
    07:00 +22°C° 0 mm 1 mps 750 mmHg 76%
    08:00 +24°C° 0 mm 1 mps 750 mmHg 70%
    09:00 +26°C° 0 mm 1 mps 750 mmHg 63%
    10:00 +27°C° 0 mm 1 mps 750 mmHg 57%
    11:00 +29°C° 0 mm 1 mps 750 mmHg 52%
    12:00 +31°C° 0 mm 1 mps 749 mmHg 47%
    13:00 +32°C° 0 mm 1 mps 749 mmHg 42%
    14:00 +32°C° 0 mm 1 mps 749 mmHg 42%
    15:00 +32°C° 0 mm 1 mps 749 mmHg 42%
    16:00 +32°C° 0 mm 1 mps 748 mmHg 42%
    17:00 +30°C° 0 mm 1 mps 748 mmHg 47%
    18:00 +29°C° 0 mm 1 mps 748 mmHg 51%
    19:00 +28°C° 0 mm 1 mps 748 mmHg 55%
    20:00 +27°C° 0 mm 1 mps 748 mmHg 58%
    21:00 +26°C° 0 mm 1 mps 749 mmHg 62%
    22:00 +24°C° 0 mm 1 mps 749 mmHg 66%
    23:00 +24°C° 0 mm 1 mps 749 mmHg 68%

    Day after tomorrow, 23 August, Thursday

    Time Temperature Precipitation Wind Pressure Humidity
    00:00 +23°C° 0 mm 1 mps 749 mmHg 71%
    01:00 +22°C° 0 mm 1 mps 749 mmHg 74%
    02:00 +22°C° 0 mm 1 mps 748 mmHg 76%
    03:00 +22°C° 0 mm 1 mps 748 mmHg 77%
    04:00 +21°C° 0 mm 1 mps 748 mmHg 79%
    05:00 +22°C° 0 mm 1 mps 748 mmHg 78%
    06:00 +22°C° 0 mm 1 mps 748 mmHg 76%
    07:00 +20°C° 0 mm 0 mps 748 mmHg 75%
    08:00 +24°C° 0 mm 1 mps 748 mmHg 68%
    09:00 +26°C° 0 mm 1 mps 748 mmHg 61%
    10:00 +28°C° 0 mm 1 mps 748 mmHg 54%
    11:00 +29°C° 0 mm 2 mps 748 mmHg 50%
    12:00 +30°C° 0 mm 2 mps 747 mmHg 45%
    13:00 +31°C° 0 mm 2 mps 747 mmHg 41%
    14:00 +31°C° 0 mm 3 mps 747 mmHg 40%
    15:00 +31°C° 0 mm 3 mps 746 mmHg 40%
    16:00 +31°C° 0 mm 3 mps 746 mmHg 39%
    17:00 +30°C° 0 mm 2 mps 746 mmHg 45%
    18:00 +28°C° 0 mm 2 mps 746 mmHg 50%
    19:00 +27°C° 0 mm 2 mps 746 mmHg 56%
    20:00 +26°C° 0.1 mm 2 mps 746 mmHg 61%
    21:00 +24°C° 0.1 mm 2 mps 746 mmHg 67%
    22:00 +23°C° 0.1 mm 2 mps 746 mmHg 72%
    23:00 +21°C° 0 mm 2 mps 746 mmHg 76%

    24 August, Friday

    Time Temperature Precipitation Wind Pressure Humidity
    00:00 +20°C° 0 mm 2 mps 746 mmHg 80%
    01:00 +20°C° 0 mm 2 mps 746 mmHg 83%
    02:00 +19°C° 0 mm 2 mps 746 mmHg 85%
    03:00 +19°C° 0 mm 2 mps 746 mmHg 87%
    04:00 +18°C° 0 mm 2 mps 746 mmHg 89%
    05:00 +18°C° 0.1 mm 2 mps 746 mmHg 86%
    06:00 +18°C° 0.1 mm 2 mps 746 mmHg 84%
    07:00 +18°C° 0.1 mm 3 mps 746 mmHg 82%
    08:00 +19°C° 0 mm 3 mps 747 mmHg 74%
    09:00 +20°C° 0 mm 4 mps 747 mmHg 66%
    10:00 +21°C° 0 mm 4 mps 747 mmHg 57%
    11:00 +21°C° 0 mm 4 mps 747 mmHg 55%
    12:00 +21°C° 0 mm 5 mps 747 mmHg 52%
    13:00 +22°C° 0 mm 5 mps 747 mmHg 50%
    14:00 +21°C° 0 mm 5 mps 747 mmHg 48%
    15:00 +21°C° 0 mm 5 mps 747 mmHg 46%
    16:00 +21°C° 0 mm 5 mps 747 mmHg 44%
    17:00 +20°C° 0 mm 4 mps 747 mmHg 47%
    18:00 +19°C° 0 mm 3 mps 748 mmHg 49%
    19:00 +18°C° 0 mm 3 mps 748 mmHg 51%
    20:00 +16°C° 0 mm 2 mps 748 mmHg 53%
    21:00 +15°C° 0 mm 2 mps 749 mmHg 55%
    22:00 +14°C° 0 mm 2 mps 749 mmHg 58%
    23:00 +14°C° 0 mm 1 mps 749 mmHg 60%

    25 August, Saturday

    Time Temperature Precipitation Wind Pressure Humidity
    00:00 +13°C° 0 mm 1 mps 749 mmHg 62%
    01:00 +13°C° 0 mm 1 mps 749 mmHg 64%
    02:00 +12°C° 0 mm 1 mps 749 mmHg 66%
    03:00 +12°C° 0 mm 1 mps 749 mmHg 68%
    04:00 +11°C° 0 mm 1 mps 749 mmHg 69%
    05:00 +12°C° 0 mm 1 mps 749 mmHg 68%
    06:00 +12°C° 0 mm 1 mps 749 mmHg 66%
    07:00 +13°C° 0 mm 1 mps 748 mmHg 65%
    08:00 +14°C° 0 mm 2 mps 748 mmHg 59%
    09:00 +16°C° 0 mm 2 mps 748 mmHg 53%
    10:00 +17°C° 0 mm 2 mps 748 mmHg 47%
    11:00 +17°C° 0 mm 3 mps 747 mmHg 45%
    12:00 +18°C° 0 mm 3 mps 747 mmHg 43%
    13:00 +18°C° 0 mm 3 mps 746 mmHg 42%
    14:00 +18°C° 0 mm 3 mps 746 mmHg 42%
    15:00 +18°C° 0 mm 3 mps 745 mmHg 42%
    16:00 +18°C° 0 mm 3 mps 745 mmHg 42%
    17:00 +17°C° 0 mm 2 mps 745 mmHg 47%
    18:00 +16°C° 0 mm 2 mps 745 mmHg 52%
    19:00 +15°C° 0 mm 2 mps 744 mmHg 57%
    20:00 +14°C° 0 mm 2 mps 744 mmHg 62%
    21:00 +14°C° 0 mm 1 mps 744 mmHg 66%
    22:00 +13°C° 0 mm 1 mps 744 mmHg 70%
    23:00 +13°C° 0 mm 1 mps 744 mmHg 72%

    26 August, Sunday

    Time Temperature Precipitation Wind Pressure Humidity
    00:00 +13°C° 0 mm 1 mps 743 mmHg 74%
    01:00 +13°C° 0 mm 1 mps 743 mmHg 76%
    02:00 +12°C° 0.4 mm 1 mps 743 mmHg 79%
    03:00 +12°C° 0.4 mm 1 mps 742 mmHg 82%
    04:00 +12°C° 0.4 mm 2 mps 742 mmHg 85%
    05:00 +12°C° 0.7 mm 2 mps 741 mmHg 86%
    06:00 +12°C° 0.7 mm 2 mps 741 mmHg 87%
    07:00 +12°C° 0.7 mm 2 mps 741 mmHg 88%
    08:00 +12°C° 0.7 mm 2 mps 742 mmHg 85%
    09:00 +13°C° 0.7 mm 2 mps 742 mmHg 83%
    10:00 +12°C° 0.7 mm 3 mps 742 mmHg 81%
    11:00 +13°C° 0.5 mm 3 mps 742 mmHg 77%
    12:00 +15°C° 0.5 mm 2 mps 743 mmHg 74%
    13:00 +15°C° 0.5 mm 2 mps 743 mmHg 70%
    14:00 +16°C° 0.3 mm 2 mps 744 mmHg 69%
    15:00 +16°C° 0.3 mm 2 mps 744 mmHg 69%
    16:00 +17°C° 0.3 mm 3 mps 745 mmHg 68%
    17:00 +16°C° 0.2 mm 2 mps 745 mmHg 71%
    18:00 +16°C° 0.2 mm 2 mps 746 mmHg 73%
    19:00 +15°C° 0.2 mm 2 mps 747 mmHg 75%
    20:00 +14°C° 0 mm 1 mps 748 mmHg 78%
    21:00 +13°C° 0 mm 1 mps 748 mmHg 80%
    22:00 +12°C° 0 mm 1 mps 749 mmHg 82%
    23:00 +12°C° 0 mm 1 mps 750 mmHg 83%
    Show more